Volver al catálogo

CZ-6A DEB

ActivoPO
NORAD 55003·DEBRIS·🇨🇳 China

Lanzado Nov 11, 2022 desde Taiyuan Satellite Launch Center

Loading…

Próximos Pases (próximas 24 horas)

TLE

ActualizadoSource: Space-Track

Época: Sep 14, 2026, 17:18 UTC

1 55003U 22151UT  26257.72132439  .00117701  00000-0  43846-2 0  9991
2 55003  98.6127 358.3452 0027461 263.3715  96.4394 15.26611666204152

Sigue CZ-6A DEB en tiempo real con AllMySat

Download on the App Store